Time,TemperatureF,DewpointF,PressureIn,WindDirection,WindDirectionDegrees,WindSpeedMPH,WindSpeedGustMPH,Humidity,HourlyPrecipIn,Conditions,Clouds,dailyrainin,SolarRadiationWatts/m^2,SoftwareType,DateUTC
2013-02-04 00:02:00,50.0,37.0,-100.00,SSW,206,2.0,7.0,60,-99.99,,,0.00,0.000000,,2013-02-04 06:02:00,
2013-02-04 00:21:00,48.0,38.0,-100.00,SSE,162,2.0,4.0,68,0.00,,,0.00,0.000000,,2013-02-04 06:21:00,
2013-02-04 00:32:00,48.0,38.0,-100.00,SSE,162,2.0,4.0,68,0.00,,,0.00,0.000000,,2013-02-04 06:32:00,
2013-02-04 00:42:00,48.0,38.0,-100.00,SSE,162,2.0,4.0,68,0.00,,,0.00,0.000000,,2013-02-04 06:42:00,
2013-02-04 00:52:00,48.0,38.0,-100.00,SSE,162,2.0,4.0,68,0.00,,,0.00,0.000000,,2013-02-04 06:52:00,
2013-02-04 01:02:00,48.0,38.0,-100.00,SSE,162,2.0,4.0,68,0.00,,,0.00,0.000000,,2013-02-04 07:02:00,
2013-02-04 01:32:00,48.0,41.0,-100.00,WSW,246,2.0,4.0,76,0.00,,,0.00,0.000000,,2013-02-04 07:32:00,
2013-02-04 01:42:00,48.0,41.0,-100.00,WSW,246,2.0,4.0,76,0.00,,,0.00,0.000000,,2013-02-04 07:42:00,
2013-02-04 01:52:00,48.0,41.0,-100.00,WSW,246,2.0,4.0,76,0.00,,,0.00,0.000000,,2013-02-04 07:52:00,
2013-02-04 02:01:00,48.0,41.0,-100.00,WSW,246,2.0,4.0,76,0.00,,,0.00,0.000000,,2013-02-04 08:01:00,
2013-02-04 02:32:00,47.0,41.0,-100.00,SSE,154,2.0,4.0,78,0.00,,,0.00,0.000000,,2013-02-04 08:32:00,
2013-02-04 02:42:00,47.0,41.0,-100.00,SSE,154,2.0,4.0,78,0.00,,,0.00,0.000000,,2013-02-04 08:42:00,
2013-02-04 02:52:00,47.0,41.0,-100.00,SSE,154,2.0,4.0,78,0.00,,,0.00,0.000000,,2013-02-04 08:52:00,
2013-02-04 03:02:00,47.0,41.0,-100.00,SSE,154,2.0,4.0,78,0.00,,,0.00,0.000000,,2013-02-04 09:02:00,
2013-02-04 03:32:00,48.0,39.0,-100.00,NW,324,2.0,4.0,71,0.00,,,0.00,0.000000,,2013-02-04 09:32:00,
2013-02-04 03:42:00,48.0,39.0,-100.00,NW,324,2.0,4.0,71,0.00,,,0.00,0.000000,,2013-02-04 09:42:00,
2013-02-04 03:52:00,48.0,39.0,-100.00,NW,324,2.0,4.0,71,0.00,,,0.00,0.000000,,2013-02-04 09:52:00,
2013-02-04 04:01:00,48.0,39.0,-100.00,NW,324,2.0,4.0,71,0.00,,,0.00,0.000000,,2013-02-04 10:01:00,
2013-02-04 04:32:00,46.0,40.0,-100.00,ENE,69,1.0,3.0,79,0.00,,,0.00,0.000000,,2013-02-04 10:32:00,
2013-02-04 04:42:00,46.0,40.0,-100.00,ENE,69,1.0,3.0,79,0.00,,,0.00,0.000000,,2013-02-04 10:42:00,
2013-02-04 04:52:00,46.0,40.0,-100.00,ENE,69,1.0,3.0,79,0.00,,,0.00,0.000000,,2013-02-04 10:52:00,
2013-02-04 05:02:00,46.0,40.0,-100.00,ENE,69,1.0,3.0,79,0.00,,,0.00,0.000000,,2013-02-04 11:02:00,
2013-02-04 05:33:00,47.0,41.0,-100.00,ESE,123,1.0,3.0,81,0.00,,,0.00,0.000000,,2013-02-04 11:33:00,
2013-02-04 05:42:00,47.0,41.0,-100.00,ESE,123,1.0,3.0,81,0.00,,,0.00,0.000000,,2013-02-04 11:42:00,
2013-02-04 05:52:00,47.0,41.0,-100.00,ESE,123,1.0,3.0,81,0.00,,,0.00,0.000000,,2013-02-04 11:52:00,
2013-02-04 06:02:00,47.0,41.0,-100.00,ESE,123,1.0,3.0,81,0.00,,,0.00,0.000000,,2013-02-04 12:02:00,
2013-02-04 06:22:00,49.0,43.0,-100.00,SE,135,2.0,3.0,80,0.00,,,0.00,0.000000,,2013-02-04 12:22:00,
2013-02-04 06:33:00,49.0,43.0,-100.00,SE,135,2.0,3.0,80,0.00,,,0.00,0.000000,,2013-02-04 12:33:00,
2013-02-04 06:42:00,49.0,43.0,-100.00,SE,135,2.0,3.0,80,0.00,,,0.00,0.000000,,2013-02-04 12:42:00,
2013-02-04 06:53:00,49.0,43.0,-100.00,SE,135,2.0,3.0,80,0.00,,,0.00,0.000000,,2013-02-04 12:53:00,
2013-02-04 07:02:00,49.0,43.0,-100.00,SE,135,2.0,3.0,80,0.00,,,0.00,0.000000,,2013-02-04 13:02:00,
2013-02-04 07:03:00,50.0,41.0,-100.00,East,84,0.0,4.0,71,0.00,,,0.00,0.000000,,2013-02-04 13:03:00,
2013-02-04 07:22:00,50.0,41.0,-100.00,East,84,0.0,4.0,71,0.00,,,0.00,0.000000,,2013-02-04 13:22:00,
2013-02-04 07:33:00,50.0,41.0,-100.00,East,84,0.0,4.0,71,0.00,,,0.00,0.000000,,2013-02-04 13:33:00,
2013-02-04 07:42:00,50.0,41.0,-100.00,East,84,0.0,4.0,71,0.00,,,0.00,0.000000,,2013-02-04 13:42:00,
2013-02-04 07:52:00,50.0,41.0,-100.00,East,84,0.0,4.0,71,0.00,,,0.00,0.000000,,2013-02-04 13:52:00,
2013-02-04 08:03:00,51.0,44.0,-100.00,ESE,119,2.0,4.0,77,0.00,,,0.00,5.000000,,2013-02-04 14:03:00,
2013-02-04 08:33:00,51.0,44.0,-100.00,ESE,119,2.0,4.0,77,0.00,,,0.00,5.000000,,2013-02-04 14:33:00,
2013-02-04 08:42:00,51.0,44.0,-100.00,ESE,119,2.0,4.0,77,0.00,,,0.00,5.000000,,2013-02-04 14:42:00,
2013-02-04 08:52:00,51.0,44.0,-100.00,ESE,119,2.0,4.0,77,0.00,,,0.00,5.000000,,2013-02-04 14:52:00,
2013-02-04 09:03:00,53.0,47.0,-100.00,SE,141,4.0,7.0,80,0.00,,,0.00,38.000000,,2013-02-04 15:03:00,
2013-02-04 09:33:00,53.0,47.0,-100.00,SE,141,4.0,7.0,80,0.00,,,0.00,38.000000,,2013-02-04 15:33:00,
2013-02-04 09:43:00,53.0,47.0,-100.00,SE,141,4.0,7.0,80,0.00,,,0.00,38.000000,,2013-02-04 15:43:00,
2013-02-04 09:53:00,53.0,47.0,-100.00,SE,141,4.0,7.0,80,0.00,,,0.00,38.000000,,2013-02-04 15:53:00,
2013-02-04 12:32:00,57.0,53.0,-100.00,SE,139,4.0,7.0,88,-99.99,,,0.01,155.000000,,2013-02-04 18:32:00,
2013-02-04 12:42:00,57.0,53.0,-100.00,SE,139,4.0,7.0,88,-99.99,,,0.01,155.000000,,2013-02-04 18:42:00,
2013-02-04 12:52:00,57.0,53.0,-100.00,SE,139,4.0,7.0,88,-99.99,,,0.01,155.000000,,2013-02-04 18:52:00,
2013-02-04 13:02:00,57.0,53.0,-100.00,SE,139,4.0,7.0,88,-99.99,,,0.01,155.000000,,2013-02-04 19:02:00,
2013-02-04 13:22:00,60.0,55.0,-100.00,SSE,153,5.0,10.0,84,0.00,,,0.01,175.000000,,2013-02-04 19:22:00,
2013-02-04 13:32:00,60.0,55.0,-100.00,SSE,153,5.0,10.0,84,0.00,,,0.01,175.000000,,2013-02-04 19:32:00,
2013-02-04 13:42:00,60.0,55.0,-100.00,SSE,153,5.0,10.0,84,0.00,,,0.01,175.000000,,2013-02-04 19:42:00,
2013-02-04 13:52:00,60.0,55.0,-100.00,SSE,153,5.0,10.0,84,0.00,,,0.01,175.000000,,2013-02-04 19:52:00,
2013-02-04 14:02:00,60.0,55.0,-100.00,SSE,153,5.0,10.0,84,0.00,,,0.01,175.000000,,2013-02-04 20:02:00,
2013-02-04 14:22:00,61.0,57.0,-100.00,SSE,148,3.0,8.0,86,0.00,,,0.01,94.000000,,2013-02-04 20:22:00,
2013-02-04 14:32:00,61.0,57.0,-100.00,SSE,148,3.0,8.0,86,0.00,,,0.01,94.000000,,2013-02-04 20:32:00,
2013-02-04 14:42:00,61.0,57.0,-100.00,SSE,148,3.0,8.0,86,0.00,,,0.01,94.000000,,2013-02-04 20:42:00,
2013-02-04 14:52:00,61.0,57.0,-100.00,SSE,148,3.0,8.0,86,0.00,,,0.01,94.000000,,2013-02-04 20:52:00,
2013-02-04 15:02:00,61.0,57.0,-100.00,SSE,148,3.0,8.0,86,0.00,,,0.01,94.000000,,2013-02-04 21:02:00,
2013-02-04 15:32:00,62.0,57.0,-100.00,ESE,123,6.0,9.0,85,0.00,,,0.01,143.000000,,2013-02-04 21:32:00,
2013-02-04 15:43:00,62.0,57.0,-100.00,ESE,123,6.0,9.0,85,0.00,,,0.01,143.000000,,2013-02-04 21:43:00,
2013-02-04 15:52:00,62.0,57.0,-100.00,ESE,123,6.0,9.0,85,0.00,,,0.01,143.000000,,2013-02-04 21:52:00,
2013-02-04 16:02:00,62.0,57.0,-100.00,ESE,123,6.0,9.0,85,0.00,,,0.01,143.000000,,2013-02-04 22:02:00,
2013-02-04 16:33:00,63.0,57.0,-100.00,SSE,147,4.0,11.0,81,0.00,,,0.01,243.000000,,2013-02-04 22:33:00,
2013-02-04 16:42:00,63.0,57.0,-100.00,SSE,147,4.0,11.0,81,0.00,,,0.01,243.000000,,2013-02-04 22:42:00,
2013-02-04 16:52:00,63.0,57.0,-100.00,SSE,147,4.0,11.0,81,0.00,,,0.01,243.000000,,2013-02-04 22:52:00,
2013-02-04 17:01:00,63.0,57.0,-100.00,SSE,147,4.0,11.0,81,0.00,,,0.01,243.000000,,2013-02-04 23:01:00,
2013-02-04 17:32:00,62.0,59.0,-100.00,SSE,150,3.0,9.0,89,0.01,,,0.02,82.000000,,2013-02-04 23:32:00,
2013-02-04 17:42:00,62.0,59.0,-100.00,SSE,150,3.0,9.0,89,0.01,,,0.02,82.000000,,2013-02-04 23:42:00,
2013-02-04 17:52:00,62.0,59.0,-100.00,SSE,150,3.0,9.0,89,0.01,,,0.02,82.000000,,2013-02-04 23:52:00,
2013-02-04 18:01:00,62.0,59.0,-100.00,SSE,150,3.0,9.0,89,0.01,,,0.02,82.000000,,2013-02-05 00:01:00,
2013-02-04 18:32:00,60.0,58.0,-100.00,SE,127,3.0,6.0,93,0.00,,,0.02,24.000000,,2013-02-05 00:32:00,
2013-02-04 18:42:00,60.0,58.0,-100.00,SE,127,3.0,6.0,93,0.00,,,0.02,24.000000,,2013-02-05 00:42:00,
2013-02-04 18:52:00,60.0,58.0,-100.00,SE,127,3.0,6.0,93,0.00,,,0.02,24.000000,,2013-02-05 00:52:00,
2013-02-04 19:01:00,60.0,58.0,-100.00,SE,127,3.0,6.0,93,0.00,,,0.02,24.000000,,2013-02-05 01:01:00,
2013-02-04 19:32:00,60.0,59.0,-100.00,East,79,2.0,5.0,95,0.00,,,0.02,0.000000,,2013-02-05 01:32:00,
2013-02-04 19:42:00,60.0,59.0,-100.00,East,79,2.0,5.0,95,0.00,,,0.02,0.000000,,2013-02-05 01:42:00,
2013-02-04 19:52:00,60.0,59.0,-100.00,East,79,2.0,5.0,95,0.00,,,0.02,0.000000,,2013-02-05 01:52:00,
2013-02-04 20:01:00,60.0,59.0,-100.00,East,79,2.0,5.0,95,0.00,,,0.02,0.000000,,2013-02-05 02:01:00,
2013-02-04 20:32:00,60.0,59.0,-100.00,SE,127,3.0,6.0,96,0.00,,,0.02,0.000000,,2013-02-05 02:32:00,
2013-02-04 20:42:00,60.0,59.0,-100.00,SE,127,3.0,6.0,96,0.00,,,0.02,0.000000,,2013-02-05 02:42:00,
2013-02-04 20:52:00,60.0,59.0,-100.00,SE,127,3.0,6.0,96,0.00,,,0.02,0.000000,,2013-02-05 02:52:00,
2013-02-04 21:02:00,60.0,59.0,-100.00,SE,127,3.0,6.0,96,0.00,,,0.02,0.000000,,2013-02-05 03:02:00,
2013-02-04 21:32:00,60.0,59.0,-100.00,ESE,121,3.0,6.0,96,0.00,,,0.02,0.000000,,2013-02-05 03:32:00,
2013-02-04 21:42:00,60.0,59.0,-100.00,ESE,121,3.0,6.0,96,0.00,,,0.02,0.000000,,2013-02-05 03:42:00,
2013-02-04 21:52:00,60.0,59.0,-100.00,ESE,121,3.0,6.0,96,0.00,,,0.02,0.000000,,2013-02-05 03:52:00,
2013-02-04 22:01:00,60.0,59.0,-100.00,ESE,121,3.0,6.0,96,0.00,,,0.02,0.000000,,2013-02-05 04:01:00,
2013-02-04 22:32:00,60.0,59.0,-100.00,SE,137,2.0,5.0,96,0.00,,,0.02,0.000000,,2013-02-05 04:32:00,
2013-02-04 22:42:00,60.0,59.0,-100.00,SE,137,2.0,5.0,96,0.00,,,0.02,0.000000,,2013-02-05 04:42:00,
2013-02-04 22:52:00,60.0,59.0,-100.00,SE,137,2.0,5.0,96,0.00,,,0.02,0.000000,,2013-02-05 04:52:00,
2013-02-04 23:02:00,60.0,59.0,-100.00,SE,137,2.0,5.0,96,0.00,,,0.02,0.000000,,2013-02-05 05:02:00,
2013-02-04 23:32:00,60.0,59.0,-100.00,SE,143,3.0,5.0,97,0.00,,,0.02,0.000000,,2013-02-05 05:32:00,
2013-02-04 23:42:00,60.0,59.0,-100.00,SE,143,3.0,5.0,97,0.00,,,0.02,0.000000,,2013-02-05 05:42:00,
2013-02-04 23:52:00,60.0,59.0,-100.00,SE,143,3.0,5.0,97,0.00,,,0.02,0.000000,,2013-02-05 05:52:00,